Dodge Center, MN

12:57 AM CDT on July 22, 2017 (GMT -0500)
Dodge Center

Weather History for KTOB - September, 2013

Change the Weather History Date:

Thursday, September 12, 2013

  Actual Average (KRST) Record (KRST)
Temperature  
Mean Temperature 61 °F -  
Max Temperature 71 °F 73 °F 94 °F (1948)
Min Temperature 51 °F 51 °F 30 °F (1955)
Degree Days  
Heating Degree Days 4    
Growing Degree Days 11 (Base 50)    
Moisture  
Dew Point 47 °F    
Average Humidity 61    
Maximum Humidity 88    
Minimum Humidity 35    
Precipitation  
Precipitation 0.00 in - - ()
Sea Level Pressure  
Sea Level Pressure 30.16 in    
Wind  
Wind Speed 10 mph (NNW)    
Max Wind Speed 17 mph    
Max Gust Speed 25 mph    
Visibility 10 miles    
Events      
Averages and records for this station are not official NWS values.
T = Trace of Precipitation, MM = Missing Value Source: NWS Daily Summary

Daily Weather History Graph

Daily Weather History Graph

Search for Another Location

Airport or City:

Trip Planner

Search our weather history database for the weather conditions in past years. The results will help you decide how hot, cold, wet, or windy it might be!

Date:

Astronomy

Sep. 12, 2013 Rise Set
Actual Time 6:47 AM CDT 7:26 PM CDT
Civil Twilight 6:18 AM CDT 7:55 PM CDT
Nautical Twilight 5:43 AM CDT 8:30 PM CDT
Astronomical Twilight 5:07 AM CDT 9:05 PM CDT
Moon 2:29 PM CDT (9/12) No Moon Set
Length of Visible Light 13h 37m
Length of Day
12h 39m
Waxing Crescent, 50% of the Moon is Illuminated
Sep 12
Waxing Crescent
Sep 12
First Quarter
Sep 19
Full
Sep 26
Last Quarter
Oct 4
New

Hourly Weather History & Observations

Time (CDT) Temp. Dew Point Humidity Pressure Visibility Wind Dir Wind Speed Gust Speed Precip Events Conditions
12:14 AM 66.2 °F 51.8 °F 60% 30.07 in 10.0 mi NW 10.4 mph - N/A   Clear
12:33 AM 64.4 °F 51.8 °F 64% 30.07 in 10.0 mi NW 10.4 mph - N/A   Scattered Clouds
12:54 AM 64.4 °F 51.8 °F 64% 30.08 in 10.0 mi NW 9.2 mph - N/A   Scattered Clouds
1:14 AM 64.4 °F 50.0 °F 59% 30.08 in 10.0 mi NW 9.2 mph - N/A   Scattered Clouds
1:33 AM 62.6 °F 50.0 °F 63% 30.08 in 10.0 mi NW 8.1 mph - N/A   Clear
1:54 AM 62.6 °F 50.0 °F 63% 30.09 in 10.0 mi NW 8.1 mph - N/A   Clear
2:14 AM 62.6 °F 50.0 °F 63% 30.09 in 10.0 mi NW 9.2 mph - N/A   Scattered Clouds
2:33 AM 60.8 °F 48.2 °F 63% 30.09 in 10.0 mi NW 8.1 mph - N/A   Scattered Clouds
2:54 AM 60.8 °F 48.2 °F 63% 30.10 in 10.0 mi NW 10.4 mph - N/A   Clear
3:13 AM 60.8 °F 48.2 °F 63% 30.10 in 10.0 mi NW 9.2 mph - N/A   Clear
3:33 AM 59.0 °F 48.2 °F 67% 30.10 in 10.0 mi NW 9.2 mph 16.1 mph N/A   Scattered Clouds
3:54 AM 59.0 °F 48.2 °F 67% 30.11 in 10.0 mi NW 10.4 mph - N/A   Clear
4:13 AM 57.2 °F 48.2 °F 72% 30.11 in 10.0 mi NW 9.2 mph - N/A   Clear
4:34 AM 57.2 °F 48.2 °F 72% 30.12 in 10.0 mi NW 9.2 mph - N/A   Scattered Clouds
4:54 AM 57.2 °F 48.2 °F 72% 30.12 in 10.0 mi NW 8.1 mph - N/A   Scattered Clouds
5:13 AM 55.4 °F 48.2 °F 77% 30.13 in 10.0 mi NW 9.2 mph - N/A   Clear
5:34 AM 55.4 °F 48.2 °F 77% 30.13 in 10.0 mi NW 8.1 mph - N/A   Clear
5:54 AM 53.6 °F 48.2 °F 82% 30.13 in 10.0 mi NW 6.9 mph - N/A   Clear
6:13 AM 53.6 °F 48.2 °F 82% 30.13 in 10.0 mi NW 5.8 mph - N/A   Clear
6:34 AM 53.6 °F 48.2 °F 82% 30.14 in 10.0 mi NNW 6.9 mph - N/A   Clear
6:54 AM 53.6 °F 48.2 °F 82% 30.15 in 10.0 mi NNW 8.1 mph - N/A   Clear
7:13 AM 51.8 °F 48.2 °F 88% 30.15 in 10.0 mi NNW 6.9 mph - N/A   Clear
7:34 AM 53.6 °F 48.2 °F 82% 30.16 in 10.0 mi NNW 6.9 mph - N/A   Clear
7:54 AM 55.4 °F 48.2 °F 77% 30.16 in 10.0 mi NNW 9.2 mph - N/A   Clear
8:13 AM 55.4 °F 50.0 °F 82% 30.17 in 10.0 mi NNW 9.2 mph - N/A   Clear
8:34 AM 57.2 °F 51.8 °F 82% 30.17 in 10.0 mi North 10.4 mph - N/A   Clear
8:54 AM 59.0 °F 50.0 °F 72% 30.18 in 10.0 mi North 13.8 mph - N/A   Clear
9:13 AM 60.8 °F 50.0 °F 68% 30.19 in 10.0 mi NNW 13.8 mph 18.4 mph N/A   Clear
9:34 AM 60.8 °F 50.0 °F 68% 30.19 in 10.0 mi NNW 10.4 mph - N/A   Clear
9:54 AM 62.6 °F 50.0 °F 63% 30.20 in 10.0 mi NNW 15.0 mph 18.4 mph N/A   Clear
10:13 AM 62.6 °F 48.2 °F 59% 30.20 in 10.0 mi North 10.4 mph - N/A   Clear
10:34 AM 64.4 °F 50.0 °F 59% 30.20 in 10.0 mi North 11.5 mph - N/A   Clear
10:54 AM 64.4 °F 48.2 °F 56% 30.20 in 10.0 mi North 11.5 mph 19.6 mph N/A   Clear
11:13 AM 66.2 °F 50.0 °F 56% 30.20 in 10.0 mi North 12.7 mph 19.6 mph N/A   Clear
11:34 AM 66.2 °F 48.2 °F 52% 30.20 in 10.0 mi North 17.3 mph 23.0 mph N/A   Clear
11:54 AM 66.2 °F 48.2 °F 52% 30.19 in 10.0 mi NNW 13.8 mph 19.6 mph N/A   Scattered Clouds
12:13 PM 68.0 °F 48.2 °F 49% 30.20 in 10.0 mi North 15.0 mph 25.3 mph N/A   Scattered Clouds
12:34 PM 69.8 °F 48.2 °F 46% 30.19 in 10.0 mi North 13.8 mph 18.4 mph N/A   Scattered Clouds
12:54 PM 69.8 °F 48.2 °F 46% 30.19 in 10.0 mi NNW 15.0 mph - N/A   Scattered Clouds
1:13 PM 69.8 °F 48.2 °F 46% 30.19 in 10.0 mi North 15.0 mph 23.0 mph N/A   Scattered Clouds
1:34 PM 68.0 °F 46.4 °F 46% 30.19 in 10.0 mi North 15.0 mph 19.6 mph N/A   Scattered Clouds
1:54 PM 66.2 °F 48.2 °F 52% 30.19 in 10.0 mi North 12.7 mph 18.4 mph N/A   Scattered Clouds
2:13 PM 68.0 °F 46.4 °F 46% 30.19 in 10.0 mi NNW 13.8 mph 17.3 mph N/A   Mostly Cloudy
2:34 PM 69.8 °F 48.2 °F 46% 30.18 in 10.0 mi North 11.5 mph - N/A   Mostly Cloudy
2:54 PM 71.6 °F 46.4 °F 41% 30.17 in 10.0 mi NNW 12.7 mph 20.7 mph N/A   Scattered Clouds
3:13 PM 68.0 °F 46.4 °F 46% 30.17 in 10.0 mi NNW 11.5 mph - N/A   Scattered Clouds
3:34 PM 69.8 °F 46.4 °F 43% 30.17 in 10.0 mi NNW 13.8 mph 19.6 mph N/A   Scattered Clouds
3:54 PM 71.6 °F 46.4 °F 41% 30.16 in 10.0 mi North 15.0 mph 19.6 mph N/A   Scattered Clouds
4:13 PM 68.0 °F 44.6 °F 43% 30.17 in 10.0 mi North 15.0 mph 20.7 mph N/A   Scattered Clouds
4:34 PM 69.8 °F 44.6 °F 40% 30.16 in 10.0 mi NNW 11.5 mph - N/A   Clear
4:53 PM 68.0 °F 42.8 °F 40% 30.16 in 10.0 mi North 15.0 mph 25.3 mph N/A   Mostly Cloudy
5:14 PM 69.8 °F 41.0 °F 35% 30.16 in 10.0 mi NNW 12.7 mph 19.6 mph N/A   Scattered Clouds
5:34 PM 66.2 °F 42.8 °F 43% 30.16 in 10.0 mi North 11.5 mph - N/A   Scattered Clouds
5:53 PM 68.0 °F 42.8 °F 40% 30.17 in 10.0 mi North 9.2 mph - N/A   Scattered Clouds
6:14 PM 66.2 °F 42.8 °F 43% 30.17 in 10.0 mi North 9.2 mph 17.3 mph N/A   Clear
6:33 PM 66.2 °F 42.8 °F 43% 30.17 in 10.0 mi North 6.9 mph - N/A   Clear
6:53 PM 64.4 °F 42.8 °F 45% 30.18 in 10.0 mi North 9.2 mph - N/A   Clear
7:14 PM 62.6 °F 42.8 °F 48% 30.18 in 10.0 mi North 8.1 mph - N/A   Scattered Clouds
7:33 PM 60.8 °F 44.6 °F 55% 30.18 in 10.0 mi North 5.8 mph - N/A   Clear
7:54 PM 59.0 °F 44.6 °F 59% 30.19 in 10.0 mi North 5.8 mph - N/A   Clear
8:14 PM 57.2 °F 44.6 °F 63% 30.19 in 10.0 mi North 5.8 mph - N/A   Scattered Clouds
8:33 PM 57.2 °F 44.6 °F 63% 30.20 in 10.0 mi North 5.8 mph - N/A   Scattered Clouds
8:54 PM 57.2 °F 44.6 °F 63% 30.20 in 10.0 mi North 3.5 mph - N/A   Clear
9:14 PM 55.4 °F 44.6 °F 67% 30.21 in 10.0 mi North 4.6 mph - N/A   Clear
9:33 PM 55.4 °F 44.6 °F 67% 30.21 in 10.0 mi North 4.6 mph - N/A   Clear
9:54 PM 53.6 °F 44.6 °F 72% 30.21 in 10.0 mi North 3.5 mph - N/A   Clear
10:14 PM 53.6 °F 44.6 °F 72% 30.21 in 10.0 mi NNW 4.6 mph - N/A   Clear
10:33 PM 53.6 °F 44.6 °F 72% 30.21 in 10.0 mi North 4.6 mph - N/A   Scattered Clouds
10:54 PM 53.6 °F 44.6 °F 72% 30.22 in 10.0 mi North 5.8 mph - N/A   Scattered Clouds
11:14 PM 53.6 °F 44.6 °F 72% 30.22 in 10.0 mi North 5.8 mph - N/A   Clear
11:34 PM 53.6 °F 44.6 °F 72% 30.22 in 10.0 mi North 5.8 mph - N/A   Clear
11:54 PM 53.6 °F 44.6 °F 72% 30.22 in 10.0 mi North 4.6 mph - N/A   Clear